Weather History for Covington, KY

Change the Weather History Date:

Saturday, December 8, 2012

  Actual Average Record
Temperature  
Mean Temperature 52 °F 36 °F  
Max Temperature 56 °F 44 °F 66 °F (1922)
Min Temperature 48 °F 28 °F -2 °F (1917)
Degree Days  
Heating Degree Days 13 29  
Month to date heating degree days 109 222  
Since 1 July heating degree days 1215 1182  
Cooling Degree Days 0 0  
Month to date cooling degree days 0 0  
Year to date cooling degree days 1439 1121  
Growing Degree Days 2 (Base 50)    
Moisture  
Dew Point 50 °F    
Average Humidity 92    
Maximum Humidity 100    
Minimum Humidity 83    
Precipitation  
Precipitation 0.12 in 0.12 in 1.71 in (1978)
Month to date precipitation 2.17 0.89  
Year to date precipitation 35.20 40.04  
Snow  
Snow 0.00 in 0.10 in 11.00 in (1917)
Month to date snowfall 0.0 0.8  
Since 1 July snowfall T 1.6  
Snow Depth 0.00 in    
Sea Level Pressure  
Sea Level Pressure 29.90 in    
Wind  
Wind Speed 6 mph (West)    
Max Wind Speed 14 mph    
Max Gust Speed 20 mph    
Visibility 5 miles    
Events Rain    
T = Trace of Precipitation, MM = Missing Value Source: NWS Daily Summary

Daily Weather History Graph

Daily Weather History Graph

Search for Another Location

Airport:

Trip Planner

Search our weather history database for the weather conditions in past years. The results will help you decide how hot, cold, wet, or windy it might be!

Date:

Astronomy

Dec. 08, 2012 Rise Set
Actual Time 7:45 AM EST 5:16 PM EST
Civil Twilight 7:15 AM EST 5:45 PM EST
Nautical Twilight 6:42 AM EST 6:19 PM EST
Astronomical Twilight 6:09 AM EST 6:51 PM EST
Moon 2:11 AM EST (12/8) 1:43 PM EST (12/8)
Length of Visible Light 10h 30m
Length of Day
9h 30m
Waning Crescent, 28% of the Moon is Illuminated
Dec 8
Waning Crescent
Dec 13
New
Dec 20
First Quarter
Dec 28
Full
Jan 4
Last Quarter

Hourly Weather History & Observations

Time (EST) Temp. Dew Point Humidity Pressure Visibility Wind Dir Wind Speed Gust Speed Precip Events Conditions
12:39 AM 55.4 °F 53.6 °F 94% 29.86 in 5.0 mi WSW 5.8 mph - N/A   Overcast
12:47 AM 55.4 °F 53.6 °F 94% 29.86 in 5.0 mi WSW 4.6 mph - N/A   Overcast
12:52 AM 55.0 °F 53.1 °F 93% 29.85 in 5.0 mi West 5.8 mph - N/A   Overcast
1:52 AM 54.0 °F 53.1 °F 97% 29.84 in 6.0 mi SW 5.8 mph - N/A   Overcast
2:27 AM 53.6 °F 51.8 °F 94% 29.85 in 6.0 mi Calm Calm - 0.00 in Rain Light Rain
2:42 AM 53.6 °F 51.8 °F 94% 29.86 in 4.0 mi SSW 3.5 mph - 0.00 in Rain Light Rain
2:52 AM 52.0 °F 52.0 °F 100% 29.86 in 2.5 mi Calm Calm - 0.00 in   Mostly Cloudy
3:18 AM 51.8 °F 51.8 °F 100% 29.86 in 0.8 mi South 3.5 mph - N/A   Overcast
3:25 AM 53.6 °F 51.8 °F 94% 29.85 in 1.5 mi South 3.5 mph - N/A   Overcast
3:52 AM 53.1 °F 53.1 °F 100% 29.84 in 2.0 mi South 5.8 mph - N/A   Overcast
4:52 AM 52.0 °F 52.0 °F 100% 29.83 in 3.0 mi South 5.8 mph - 0.00 in   Light Drizzle
5:14 AM 51.8 °F 51.8 °F 100% 29.84 in 3.0 mi Calm Calm - 0.00 in   Mostly Cloudy
5:21 AM 51.8 °F 51.8 °F 100% 29.84 in 2.0 mi SSW 3.5 mph - 0.00 in   Mostly Cloudy
5:30 AM 53.6 °F 51.8 °F 94% 29.84 in 1.5 mi SSW 5.8 mph - 0.00 in Rain Light Rain
5:45 AM 53.6 °F 53.6 °F 100% 29.84 in 2.5 mi South 4.6 mph - 0.01 in Rain Light Rain
5:52 AM 53.1 °F 53.1 °F 100% 29.83 in 2.5 mi SSW 3.5 mph - 0.01 in Rain Light Rain
6:41 AM 53.6 °F 53.6 °F 100% 29.85 in 1.5 mi SSW 3.5 mph - 0.00 in Rain Light Rain
6:52 AM 53.1 °F 53.1 °F 100% 29.85 in 1.2 mi Calm Calm - 0.00 in Rain Light Rain
7:52 AM 53.1 °F 53.1 °F 100% 29.85 in 1.2 mi Calm Calm - 0.04 in Rain Light Rain
8:32 AM 53.6 °F 53.6 °F 100% 29.87 in 1.0 mi West 4.6 mph - 0.06 in Rain Light Rain
8:52 AM 54.0 °F 54.0 °F 100% 29.87 in 1.5 mi West 5.8 mph - 0.07 in   Overcast
9:19 AM 53.6 °F 51.8 °F 94% 29.88 in 4.0 mi WNW 6.9 mph - 0.00 in   Overcast
9:45 AM 53.6 °F 51.8 °F 94% 29.89 in 4.0 mi West 5.8 mph - 0.00 in Rain Light Rain
9:52 AM 53.1 °F 52.0 °F 96% 29.89 in 4.0 mi West 4.6 mph - 0.00 in   Overcast
10:52 AM 54.0 °F 52.0 °F 93% 29.89 in 4.0 mi Calm Calm - N/A   Overcast
11:52 AM 55.0 °F 52.0 °F 89% 29.89 in 6.0 mi WSW 3.5 mph - N/A   Overcast
12:52 PM 54.0 °F 50.0 °F 86% 29.88 in 10.0 mi West 9.2 mph - N/A   Overcast
1:52 PM 55.0 °F 50.0 °F 83% 29.90 in 10.0 mi West 9.2 mph - N/A   Overcast
2:52 PM 54.0 °F 48.9 °F 83% 29.91 in 10.0 mi WNW 9.2 mph - N/A   Overcast
3:52 PM 54.0 °F 48.9 °F 83% 29.93 in 9.0 mi NW 8.1 mph - N/A   Overcast
4:29 PM 51.8 °F 48.2 °F 88% 29.94 in 5.0 mi NNW 11.5 mph - N/A   Overcast
4:52 PM 51.1 °F 48.0 °F 89% 29.95 in 5.0 mi NNW 12.7 mph - N/A   Overcast
5:03 PM 51.8 °F 48.2 °F 88% 29.96 in 6.0 mi NNW 9.2 mph - N/A   Overcast
5:08 PM 51.8 °F 48.2 °F 88% 29.96 in 6.0 mi North 8.1 mph - N/A   Overcast
5:49 PM 50.0 °F 46.4 °F 87% 29.97 in 8.0 mi North 9.2 mph - N/A   Overcast
5:52 PM 50.0 °F 46.9 °F 89% 29.97 in 8.0 mi North 9.2 mph - N/A   Overcast
6:52 PM 48.2 °F 46.4 °F 93% 29.99 in 7.0 mi North 8.1 mph - N/A   Overcast
7:08 PM 48.2 °F 46.4 °F 93% 29.99 in 7.0 mi North 10.4 mph - N/A   Overcast
7:52 PM 48.9 °F 46.0 °F 90% 30.00 in 6.0 mi North 9.2 mph - N/A   Overcast
8:39 PM 48.2 °F 44.6 °F 87% 30.02 in 6.0 mi NNE 6.9 mph - N/A   Overcast
8:52 PM 48.9 °F 45.0 °F 86% 30.02 in 6.0 mi NNE 8.1 mph - N/A   Overcast
9:52 PM 48.0 °F 45.0 °F 89% 30.01 in 7.0 mi NE 9.2 mph - N/A   Overcast
10:52 PM 48.0 °F 44.1 °F 86% 30.01 in 7.0 mi ENE 8.1 mph - N/A   Overcast
11:52 PM 48.2 °F 44.6 °F 87% 30.02 in 6.0 mi ENE 8.1 mph - N/A   Overcast